N8QQ Weather Reports


time (UTC)temp
C
wind
direction
speed
KPH
gust
KPH
rain 1hr
cm
rain 24hr
cm
rain mn
cm
humidity
%
barometer
mb
20260503201020 17 82 4.8 11.3 0.00 0.00 0.00 41 1010.6
20260503200024 16 136 3.2 8.0 0.00 0.00 0.00 42 1010.6
20260503195027 16 215 4.8 9.7 0.00 0.00 0.00 41 1010.9
20260503194030 17 15 3.2 6.4 0.00 0.00 0.00 41 1011.3
20260503193033 17 200 4.8 8.0 0.00 0.00 0.00 40 1011.3
20260503192018 17 234 3.2 8.0 0.00 0.00 0.00 40 1011.5
20260503191021 18 134 4.8 11.3 0.00 0.00 0.00 41 1011.6
20260503190024 17 242 1.6 4.8 0.00 0.00 0.00 41 1011.7
20260503185027 17 170 4.8 8.0 0.00 0.00 0.00 41 1012.0
20260503184030 17 209 4.8 9.7 0.00 0.00 0.00 40 1012.2
20260503183015 16 300 3.2 4.8 0.00 0.00 0.00 41 1012.3
20260503182018 16 23 4.8 9.7 0.00 0.00 0.00 41 1012.5
20260503181021 17 220 3.2 8.0 0.00 0.00 0.00 41 1012.5
20260503180025 17 134 4.8 14.5 0.00 0.00 0.00 40 1012.5
20260503175028 17 164 4.8 11.3 0.00 0.00 0.00 40 1012.7
20260503174032 17 233 6.4 16.1 0.00 0.00 0.00 40 1013.0
20260503173016 17 6 3.2 11.3 0.00 0.00 0.00 40 1013.0
20260503172020 17 225 4.8 12.9 0.00 0.00 0.00 38 1013.5
20260503171042 17 196 4.8 8.0 0.00 0.00 0.00 40 1013.6
20260503131036 11 196 3.2 6.4 0.00 0.00 0.00 54 1014.7
20260503081018 0 0.0 0.0 0.00 0.00 0.00 94 1013.4
20260503072016 0 0.0 0.0 0.00 0.00 0.00 93 1013.5
20260503071019 0 0.0 0.0 0.00 0.00 0.00 93 1013.5
20260503055025 0 0.0 0.0 0.00 0.00 0.00 92 1013.8
20260503054109 0 0.0 0.0 0.00 0.00 0.00 91 1013.9
20260503053032 0 0.0 0.0 0.00 0.00 0.00 90 1014.0
20260503052016 1 0.0 0.0 0.00 0.00 0.00 90 1013.9
20260503051101 1 0.0 0.0 0.00 0.00 0.00 90 1013.8
20260503050022 1 0.0 0.0 0.00 0.00 0.00 90 1013.8
20260503045026 1 0.0 0.0 0.00 0.00 0.00 90 1013.9
20260503044029 1 0.0 0.0 0.00 0.00 0.00 90 1013.9
20260503043032 1 0.0 0.0 0.00 0.00 0.00 89 1013.9
20260503042017 2 0.0 0.0 0.00 0.00 0.00 89 1013.9
20260503041021 2 0.0 0.0 0.00 0.00 0.00 88 1013.9
20260503040024 2 0.0 0.0 0.00 0.00 0.00 87 1014.0
20260503035027 2 0.0 0.0 0.00 0.00 0.00 86 1014.0
20260503034050 2 0.0 0.0 0.00 0.00 0.00 86 1013.9
20260503033015 2 0.0 0.0 0.00 0.00 0.00 85 1013.9
20260503032019 2 0.0 0.0 0.00 0.00 0.00 84 1013.9
20260503031022 3 0.0 0.0 0.00 0.00 0.00 82 1013.9
20260503030019 3 0.0 0.0 0.00 0.00 0.00 81 1014.0
20260503025016 3 0.0 0.0 0.00 0.00 0.00 78 1014.1
20260503024032 3 0.0 0.0 0.00 0.00 0.00 75 1014.1
20260503023058 4 0.0 0.0 0.00 0.00 0.00 73 1013.8
20260503022020 5 0.0 0.0 0.00 0.00 0.00 71 1013.8
20260503021024 5 0.0 0.0 0.00 0.00 0.00 67 1013.7
20260503020025 5 0.0 0.0 0.00 0.00 0.00 65 1013.7
20260503015028 6 0.0 0.0 0.00 0.00 0.00 64 1013.5
20260503014031 6 0.0 0.0 0.00 0.00 0.00 62 1013.3
20260503013056 6 0.0 0.0 0.00 0.00 0.00 61 1013.3
20260503012019 7 202 0.0 1.6 0.00 0.00 0.00 60 1013.2
20260503011023 7 86 0.0 3.2 0.00 0.00 0.00 58 1013.1
20260503010025 7 141 1.6 3.2 0.00 0.00 0.00 57 1013.0
20260503005028 7 184 1.6 4.8 0.00 0.00 0.00 56 1012.9
20260503004032 8 147 1.6 4.8 0.00 0.00 0.00 55 1012.7
20260503003036 8 84 3.2 6.4 0.00 0.00 0.00 54 1012.7
20260503002019 8 47 4.8 6.4 0.00 0.00 0.00 53 1012.6
20260503001023 8 151 3.2 6.4 0.00 0.00 0.00 52 1012.5
20260503000026 9 143 4.8 8.0 0.00 0.00 0.00 51 1012.5
20260502235023 10 287 4.8 9.7 0.00 0.00 0.00 49 1012.3
20260502234020 10 76 6.4 9.7 0.00 0.00 0.00 49 1012.3
20260502233018 10 94 4.8 8.0 0.00 0.00 0.00 48 1012.2
20260502232015 10 335 4.8 8.0 0.00 0.00 0.00 48 1012.2
20260502231024 10 346 3.2 6.4 0.00 0.00 0.00 49 1012.3
20260502230027 10 235 3.2 8.0 0.00 0.00 0.00 47 1012.3
20260502225030 11 246 4.8 9.7 0.00 0.00 0.00 46 1012.1
20260502224031 11 71 6.4 8.0 0.00 0.00 0.00 45 1012.0
20260502223018 12 187 4.8 8.0 0.00 0.00 0.00 44 1012.0
20260502222100 11 140 3.2 8.0 0.00 0.00 0.00 44 1012.0
20260502221023 12 77 4.8 9.7 0.00 0.00 0.00 43 1012.0
20260502220026 11 205 4.8 8.0 0.00 0.00 0.00 43 1012.0
20260502215029 11 227 4.8 12.9 0.00 0.00 0.00 43 1012.0
20260502214032 13 225 8.0 14.5 0.00 0.00 0.00 41 1011.7
20260502213017 12 203 6.4 11.3 0.00 0.00 0.00 41 1011.6
20260502212041 12 218 4.8 9.7 0.00 0.00 0.00 42 1011.7
20260502211043 11 94 4.8 8.0 0.00 0.00 0.00 43 1011.7
20260502210046 12 214 4.8 8.0 0.00 0.00 0.00 42 1011.8
20260502205029 13 170 4.8 8.0 0.00 0.00 0.00 41 1011.8
20260502204046 12 194 6.4 12.9 0.00 0.00 0.00 42 1011.7
20260502203017 12 169 4.8 9.7 0.00 0.00 0.00 43 1011.9
20260502202042 12 141 4.8 11.3 0.00 0.00 0.00 43 1011.9